Flag for Oman Weather past 2 weeks in Salalah, Oman

Now
86 °F

Warm.


Feels Like: 89 °F
Forecast: 69 / 93 °F
Wind: 8 mph from Southeast

Location: Salalah Airport

Current Time: Oct 22, 2014 at 5:04:58 PM

Latest Report: Oct 22, 2014 at 3:50 PM


Visibility: N/A

Pressure: 29.92 "Hg

Humidity: 55%

Dew point: 68 °F

Location of SalalahLocation

Historic Weather in Salalah — Graph

°F

Salalah temperature yesterday

Maximum temperature yesterday: 86 °F (at 9:50 AM)
Minimum temperature yesterday: 73 °F (at 5:50 AM)
Average temperature yesterday: 80 °F

Past Weeks' High & Low Weather Summary

 TemperatureHumidityPressure
High91 °F (Oct 18, 12:50 PM)79% (Oct 8, 12:50 AM)30.04 "Hg (Oct 8, 12:50 AM)
Low72 °F (Oct 17, 5:50 AM)21% (Oct 18, 1:50 PM)29.77 "Hg (Oct 8, 2:50 PM)
Average82 °F63%29.89 "Hg
* Reported Oct 7 2:50 PM — Oct 22 2:50 PM, Salalah, Weather by CustomWeather, © 2014

Note: Actual official high and low records may vary slightly from our data, if they occured in-between our weather recording intervals... More about our weather records

Advertising

Salalah weather history for previous 24 hours

 ConditionsComfort  
Time TempWeatherWind HumidityBarometerVisibility
2:50 PM
Oct 22
88 °FWarm.9 mph49%29.92 "HgN/A
1:50 PM88 °FWarm.6 mph49%29.92 "HgN/A
12:50 PM88 °FPassing clouds.6 mph52%29.95 "HgN/A
11:50 AM86 °FWarm.7 mph55%29.98 "HgN/A
10:50 AM86 °FPassing clouds.5 mph52%30.01 "HgN/A
9:50 AM82 °FPassing clouds.2 mph58%30.04 "HgN/A
3:50 AM75 °FPassing clouds.2 mph74%29.95 "HgN/A
1:50 AM77 °FPassing clouds.5 mph61%29.95 "HgN/A
12:50 AM77 °FPassing clouds.7 mph65%29.98 "HgN/A
11:50 PM
Oct 21
77 °FPassing clouds.6 mph65%29.98 "HgN/A
10:50 PM79 °FPassing clouds.5 mph58%29.98 "HgN/A
9:50 PM79 °FPassing clouds.3 mph58%29.98 "HgN/A
8:50 PM79 °FPassing clouds.2 mph79%29.98 "HgN/A
7:50 PM81 °FClear.3 mph74%29.95 "Hg10 mi
6:50 PM81 °FClear.3 mph70%29.92 "Hg10 mi
5:50 PM82 °FSunny.6 mph62%29.89 "Hg10 mi
Weather by CustomWeather, © 2014

See weather overviewHow to use our weather pages